Hourly Weather Avhimki

Today, 26 September, Saturday

Time Temperature Precipitation Wind Pressure Humidity
00:00 +16°C° 0 mm 5 mps 742 mmHg 59%
01:00 +15°C° 0 mm 5 mps 742 mmHg 59%
02:00 +14°C° 0 mm 5 mps 742 mmHg 60%
03:00 +14°C° 0 mm 5 mps 742 mmHg 61%
04:00 +13°C° 0 mm 5 mps 742 mmHg 62%
05:00 +13°C° 0 mm 5 mps 742 mmHg 63%
06:00 +13°C° 0 mm 5 mps 742 mmHg 65%
07:00 +14°C° 0 mm 6 mps 742 mmHg 66%
08:00 +14°C° 0 mm 6 mps 742 mmHg 67%
09:00 +16°C° 0 mm 6 mps 742 mmHg 66%
10:00 +17°C° 0 mm 6 mps 743 mmHg 64%
11:00 +20°C° 0 mm 6 mps 743 mmHg 62%
12:00 +21°C° 0 mm 7 mps 743 mmHg 59%
13:00 +22°C° 0 mm 7 mps 743 mmHg 57%
14:00 +22°C° 0 mm 7 mps 742 mmHg 54%
15:00 +21°C° 0 mm 6 mps 742 mmHg 58%
16:00 +20°C° 0 mm 6 mps 742 mmHg 62%
17:00 +19°C° 0 mm 5 mps 742 mmHg 65%
18:00 +19°C° 0 mm 5 mps 742 mmHg 64%
19:00 +17°C° 0 mm 6 mps 743 mmHg 62%
20:00 +17°C° 0 mm 7 mps 743 mmHg 60%
21:00 +17°C° 0 mm 7 mps 743 mmHg 59%
22:00 +16°C° 0 mm 7 mps 743 mmHg 59%
23:00 +16°C° 0 mm 7 mps 743 mmHg 58%

Tomorrow, 27 September, Sunday

Time Temperature Precipitation Wind Pressure Humidity
00:00 +15°C° 0 mm 6 mps 743 mmHg 56%
01:00 +15°C° 0 mm 6 mps 743 mmHg 55%
02:00 +14°C° 0 mm 6 mps 743 mmHg 53%
03:00 +14°C° 0 mm 6 mps 743 mmHg 54%
04:00 +14°C° 0 mm 6 mps 743 mmHg 55%
05:00 +13°C° 0 mm 6 mps 743 mmHg 55%
06:00 +14°C° 0 mm 7 mps 743 mmHg 57%
07:00 +14°C° 0 mm 7 mps 743 mmHg 58%
08:00 +15°C° 0 mm 7 mps 743 mmHg 59%
09:00 +16°C° 0 mm 8 mps 743 mmHg 56%
10:00 +17°C° 0 mm 8 mps 743 mmHg 54%
11:00 +19°C° 0 mm 9 mps 743 mmHg 51%
12:00 +19°C° 0 mm 9 mps 743 mmHg 51%
13:00 +20°C° 0 mm 8 mps 743 mmHg 52%
14:00 +20°C° 0 mm 8 mps 743 mmHg 53%
15:00 +18°C° 0.4 mm 8 mps 743 mmHg 59%
16:00 +16°C° 0.4 mm 7 mps 743 mmHg 66%
17:00 +15°C° 0.4 mm 6 mps 743 mmHg 73%
18:00 +15°C° 0.2 mm 7 mps 744 mmHg 75%
19:00 +14°C° 0.2 mm 7 mps 744 mmHg 78%
20:00 +14°C° 0.2 mm 7 mps 744 mmHg 80%
21:00 +13°C° 0.4 mm 6 mps 744 mmHg 84%
22:00 +13°C° 0.4 mm 6 mps 744 mmHg 87%
23:00 +13°C° 0.4 mm 5 mps 745 mmHg 90%

Day after tomorrow, 28 September, Monday

Time Temperature Precipitation Wind Pressure Humidity
00:00 +13°C° 0.3 mm 4 mps 745 mmHg 91%
01:00 +13°C° 0.3 mm 4 mps 745 mmHg 92%
02:00 +13°C° 0.3 mm 3 mps 745 mmHg 94%
03:00 +13°C° 0 mm 3 mps 746 mmHg 94%
04:00 +14°C° 0 mm 2 mps 746 mmHg 94%
05:00 +14°C° 0 mm 2 mps 746 mmHg 94%
06:00 +13°C° 0 mm 2 mps 747 mmHg 92%
07:00 +12°C° 0 mm 3 mps 747 mmHg 89%
08:00 +12°C° 0 mm 3 mps 747 mmHg 87%
09:00 +13°C° 0 mm 3 mps 748 mmHg 80%
10:00 +15°C° 0 mm 2 mps 748 mmHg 73%
11:00 +16°C° 0 mm 2 mps 748 mmHg 65%
12:00 +17°C° 0 mm 2 mps 749 mmHg 61%
13:00 +17°C° 0 mm 2 mps 749 mmHg 57%
14:00 +18°C° 0 mm 2 mps 749 mmHg 53%
15:00 +18°C° 0 mm 1 mps 749 mmHg 57%
16:00 +16°C° 0 mm 1 mps 749 mmHg 61%
17:00 +14°C° 0 mm 0 mps 749 mmHg 65%
18:00 +14°C° 0 mm 1 mps 749 mmHg 67%
19:00 +13°C° 0 mm 1 mps 749 mmHg 70%
20:00 +12°C° 0 mm 1 mps 750 mmHg 72%
21:00 +12°C° 0 mm 2 mps 750 mmHg 74%
22:00 +12°C° 0 mm 2 mps 750 mmHg 75%
23:00 +12°C° 0 mm 2 mps 750 mmHg 77%

29 September, Tuesday

Time Temperature Precipitation Wind Pressure Humidity
00:00 +12°C° 0 mm 2 mps 749 mmHg 78%
01:00 +11°C° 0 mm 3 mps 749 mmHg 80%
02:00 +11°C° 0 mm 3 mps 749 mmHg 81%
03:00 +11°C° 0 mm 3 mps 748 mmHg 85%
04:00 +11°C° 0 mm 3 mps 748 mmHg 89%
05:00 +11°C° 0 mm 3 mps 748 mmHg 93%
06:00 +12°C° 0 mm 4 mps 747 mmHg 91%
07:00 +12°C° 0 mm 4 mps 747 mmHg 89%
08:00 +13°C° 0 mm 5 mps 747 mmHg 87%
09:00 +15°C° 0 mm 5 mps 746 mmHg 80%
10:00 +16°C° 0 mm 5 mps 746 mmHg 73%
11:00 +19°C° 0 mm 5 mps 745 mmHg 66%
12:00 +19°C° 0 mm 6 mps 745 mmHg 65%
13:00 +19°C° 0 mm 6 mps 745 mmHg 64%
14:00 +19°C° 0 mm 6 mps 745 mmHg 64%
15:00 +17°C° 0 mm 6 mps 744 mmHg 66%
16:00 +16°C° 0 mm 6 mps 744 mmHg 69%
17:00 +16°C° 0 mm 6 mps 744 mmHg 71%
18:00 +15°C° 0 mm 6 mps 744 mmHg 72%
19:00 +15°C° 0 mm 6 mps 743 mmHg 72%
20:00 +14°C° 0 mm 7 mps 743 mmHg 72%
21:00 +14°C° 0 mm 6 mps 743 mmHg 70%
22:00 +13°C° 0 mm 6 mps 743 mmHg 69%
23:00 +13°C° 0 mm 6 mps 743 mmHg 67%

30 September, Wednesday

Time Temperature Precipitation Wind Pressure Humidity
00:00 +13°C° 0.1 mm 6 mps 743 mmHg 68%
01:00 +13°C° 0.1 mm 6 mps 742 mmHg 70%
02:00 +13°C° 0.1 mm 6 mps 742 mmHg 72%
03:00 +12°C° 0 mm 7 mps 742 mmHg 71%
04:00 +12°C° 0 mm 7 mps 742 mmHg 70%
05:00 +12°C° 0 mm 7 mps 742 mmHg 69%
06:00 +11°C° 0.2 mm 7 mps 741 mmHg 69%
07:00 +11°C° 0.2 mm 7 mps 741 mmHg 69%
08:00 +11°C° 0.2 mm 6 mps 741 mmHg 68%
09:00 +11°C° 0 mm 7 mps 741 mmHg 67%
10:00 +12°C° 0 mm 7 mps 741 mmHg 65%
11:00 +12°C° 0 mm 8 mps 742 mmHg 63%
12:00 +12°C° 0 mm 7 mps 742 mmHg 66%
13:00 +12°C° 0 mm 7 mps 742 mmHg 70%
14:00 +14°C° 0 mm 7 mps 742 mmHg 73%
15:00 +14°C° 0 mm 7 mps 742 mmHg 74%
16:00 +12°C° 0 mm 7 mps 743 mmHg 74%
17:00 +12°C° 0 mm 7 mps 743 mmHg 74%
18:00 +13°C° 0 mm 6 mps 743 mmHg 76%
19:00 +11°C° 0 mm 6 mps 743 mmHg 78%
20:00 +11°C° 0 mm 6 mps 743 mmHg 80%
21:00 +12°C° 0 mm 5 mps 744 mmHg 81%
22:00 +12°C° 0 mm 5 mps 744 mmHg 82%
23:00 +12°C° 0 mm 5 mps 744 mmHg 83%

1 October, Thursday

Time Temperature Precipitation Wind Pressure Humidity
00:00 +12°C° 0 mm 5 mps 744 mmHg 82%
01:00 +13°C° 0 mm 5 mps 744 mmHg 80%
02:00 +13°C° 0 mm 5 mps 744 mmHg 79%
03:00 +12°C° 0.1 mm 5 mps 744 mmHg 81%
04:00 +11°C° 0.1 mm 6 mps 744 mmHg 84%
05:00 +11°C° 0.1 mm 6 mps 744 mmHg 86%
06:00 +11°C° 0 mm 6 mps 744 mmHg 86%
07:00 +13°C° 0 mm 6 mps 744 mmHg 85%
08:00 +13°C° 0 mm 6 mps 744 mmHg 85%
09:00 +13°C° 0 mm 6 mps 745 mmHg 83%
10:00 +14°C° 0 mm 6 mps 745 mmHg 81%
11:00 +15°C° 0 mm 6 mps 745 mmHg 79%
12:00 +15°C° 0 mm 6 mps 745 mmHg 77%
13:00 +16°C° 0 mm 7 mps 745 mmHg 76%
14:00 +16°C° 0 mm 7 mps 745 mmHg 74%
15:00 +16°C° 0 mm 6 mps 745 mmHg 75%
16:00 +15°C° 0 mm 6 mps 745 mmHg 75%
17:00 +15°C° 0 mm 6 mps 745 mmHg 75%
18:00 +14°C° 0 mm 6 mps 746 mmHg 72%
19:00 +14°C° 0 mm 6 mps 746 mmHg 69%
20:00 +13°C° 0 mm 6 mps 746 mmHg 66%
21:00 +13°C° 0 mm 6 mps 746 mmHg 63%
22:00 +11°C° 0 mm 6 mps 746 mmHg 60%
23:00 +11°C° 0 mm 6 mps 746 mmHg 57%
Show more